Location: Les Salelles
(44.4192°N, 4.1044°E)
Time: 16:33:06
(UTC+00:00)

SJ 16-02 - Pass Details

Date: 20 January 2021
Orbit: 606 x 615 km, 75.0° (Epoch: 27 February)

Event Time Altitude Azimuth Distance (km) Brightness Sun altitude
Rises 17:10:04 0° 155° (SSE) 2,865 4.8 -6.2°
Reaches altitude 10° 17:12:59 10° 135° (SE) 1,965 3.7 -6.7°
Maximum altitude 17:15:43 16° 96° (E) 1,588 2.9 -7.2°
Drops below altitude 10° 17:18:28 10° 57° (ENE) 1,971 3.3 -7.6°
Enters shadow 17:18:53 - 53° (NE) 2,081 3.4 -7.7°
